Location: Poughquag
(41.6090°N, 73.6820°W)
Time: 11:32:48
(UTC-05:00)

Envisat - Pass Details

Date: 26 January 2020
Orbit: 764 x 766 km, 98.1° (Epoch: 24 February)

Event Time Altitude Azimuth Distance (km) Brightness Sun altitude
Rises 18:29:58 0° 191° (SSW) 3,218 6.5 -16.4°
Reaches altitude 10° 18:32:29 10° 202° (SSW) 2,296 5.9 -16.9°
Maximum altitude 18:36:59 32° 264° (W) 1,307 4.9 -17.7°
Drops below altitude 10° 18:41:30 10° 327° (NNW) 2,311 5.8 -18.5°
Sets 18:44:04 0° 337° (NNW) 3,241 6.4 -19.0°
